Regional Weather Roundup
Issued by NWS

Home | Current Version | Previous Version | Graphics & Text | Print | Product List | Glossary Off
Versions: 1 2 3 4 5 6 7 8 9 10 11 12 13 14 15 16 17 18 19 20 21 22 23 24 25 26 27 28 29 30 31 32 33 34 35 36 37 38 39 40 41 42 43 44 45 46 47 48 49 50

000
ASUS43 KMKX 301310
RWRWI

WISCONSIN REGIONAL WEATHER ROUNDUP
NATIONAL WEATHER SERVICE MILWAUKEE/SULLIVAN WI
700 AM CST FRI JAN 30 2015

NOTE: "FAIR" INDICATES FEW OR NO CLOUDS BELOW 12,000 FEET WITH NO
SIGNIFICANT WEATHER AND/OR OBSTRUCTIONS TO VISIBILITY.

WIZ001-002-006>008-014>016-023>028-301400-
NORTHWEST WISCONSIN

CITY           SKY/WX    TMP DP  RH WIND       PRES   REMARKS
SUPERIOR ARPT  MOCLDY     1  -3  81 W3        30.54R
ASHLAND        CLOUDY     6   2  83 W7        30.50S WCI  -6
HAYWARD        MOCLDY    -3  -7  82 S3        30.47S
SIREN          PTCLDY     0  -4  85 CALM      30.52R
CUMBERLAND     MOCLDY     0  -4  85 SW3       30.48R
RICE LAKE      MOCLDY     1  -2  85 CALM      30.50S
CHETEK         MOCLDY     2  -1  84 CALM      30.50S
LADYSMITH      PTCLDY     4   0  86 CALM      30.48S
EAU CLAIRE     MOCLDY     6   0  76 SW3       30.52R
MENOMONIE      MOCLDY     8   1  74 CALM      30.52S
NEW RICHMOND   PTCLDY     6   1  79 CALM      30.51S
OSCEOLA        PTCLDY     8   1  73 CALM      30.55S
$$

WIZ003>005-009-010-017-018-301400-
NORTH CENTRAL WISCONSIN

CITY           SKY/WX    TMP DP  RH WIND       PRES   REMARKS
MANITOWISH WTR FLURRIES   9   3  77 CALM      30.39S
ARBOR VITAE    CLOUDY    11   5  75 CALM      30.40S
WOODRUFF       CLOUDY    11   5  75 CALM      30.40S
RHINELANDER    CLOUDY    10   2  69 N5        30.40S WCI   2
EAGLE RIVER    CLOUDY     9   1  71 N6        30.39S WCI  -1
LAND O LAKES   CLOUDY     9   3  75 NW3       30.39F
PHILLIPS       CLOUDY     9   2  75 CALM      30.42S
TOMAHAWK       CLOUDY    10   3  72 CALM      30.43R
MEDFORD        PTCLDY     5   1  85 CALM      30.44R
MERRILL        CLOUDY    11   3  69 N6        30.44S WCI   2
$$

WIZ029-030-035-036-043>047-301400-
CENTRAL WISCONSIN

CITY           SKY/WX    TMP DP  RH WIND       PRES   REMARKS
WAUSAU         CLOUDY    12   3  67 NW3       30.43S
MOSINEE        CLEAR      7   1  78 NW3       30.45R
MARSHFIELD     PTCLDY     6   1  80 NW3       30.46R
STEVENS POINT  CLEAR      8   1  73 CALM      30.47R
WAUPACA        CLOUDY    17   5  61 CALM      30.49R
WAUTOMA        CLEAR      5   1  83 CALM      30.50R
WISC RAPIDS    CLEAR      9   1  70 W7        30.50R WCI  -2
CAMP DOUGLAS   MOCLDY     7   5  92 W5        30.51R WCI  -2
$$

WIZ011>013-019>022-031-037>040-048>050-301400-
NORTHEAST WISCONSIN

CITY           SKY/WX    TMP DP  RH WIND       PRES   REMARKS
ANTIGO         CLOUDY    10   4  75 N6        30.41S WCI   1
SHAWANO        CLOUDY    16   5  61 NW3       30.49R
OCONTO         MOCLDY    13   2  63 CALM      30.50R
STURGEON BAY   MOCLDY    10   0  61 N6        30.49R WCI   1
GREEN BAY      CLOUDY    14   5  67 N3        30.49R
MANITOWOC      CLEAR     13   7  77 N3        30.49R
APPLETON       CLOUDY    16   5  62 NW7       30.48R WCI   6
CLINTONVILLE   CLOUDY    16   5  62 N5        30.48R WCI   9
OSHKOSH        PTCLDY    14   3  61 W5        30.48R WCI   6
$$

WIZ032>034-041-042-053>061-301400-
SOUTHWEST WISCONSIN

CITY           SKY/WX    TMP DP  RH WIND       PRES   REMARKS
LA CROSSE      PTCLDY    13   6  74 N5        30.54S WCI   5
SPARTA         PTCLDY     8   4  84 CALM      30.53S
VIROQUA        PTCLDY     9   5  84 CALM      30.48R
BOSCOBEL       CLEAR     13   5  70 CALM      30.54S
PRAIRIE DU CHI CLEAR     15   8  75 NW3       30.53F
PLATTEVILLE    CLEAR     13   7  78 N5        30.49F WCI   5
$$

WIZ056-057-062-063-064-067-068-301400-
SOUTH CENTRAL WISCONSIN

CITY           SKY/WX    TMP DP  RH WIND       PRES   REMARKS
REEDSBURG      FAIR      11   5  79 W3        30.50R
BARABOO/DELLS  FAIR      10   4  76 NW5       30.49S WCI   2
LONE ROCK      CLEAR     13   5  70 NW6       30.52F WCI   4
MINERAL POINT  CLEAR     14   9  79 NW5       30.47F WCI   6
MADISON        CLEAR     13   6  74 CALM      30.49S
MIDDLETON      CLEAR     14   7  72 NW5       30.49S WCI   7
WATERTOWN      CLEAR     13   6  74 NW3       30.49R
MONROE         CLEAR     16   9  73 N6        30.48R WCI   7
JANESVILLE     CLEAR     16   7  67 NW5       30.50R WCI   9
$$

WIZ051-052-058>065-066-070>072-301400-
SOUTHEAST WISCONSIN

CITY           SKY/WX    TMP DP  RH WIND       PRES   REMARKS
MILWAUKEE      PTCLDY    18   8  65 NW7       30.49R WCI   9
WAUKESHA       CLEAR     12   3  67 NW6       30.49R WCI   3
MILWAUKEE/TIMM CLEAR     16   7  67 NW5       30.49R WCI   9
RACINE         CLEAR     17   8  67 NW7       30.50R WCI   8
BURLINGTON     CLEAR     13   4  65 NW5       30.49R WCI   5
KENOSHA        CLEAR     17   8  67 NW8       30.48R WCI   7
FOND DU LAC    FLURRIES  11   2  67 NW7       30.48R WCI   0
SHEBOYGAN      CLOUDY    15   7  70 NW3       30.48R
WEST BEND      CLEAR     14   5  67 NW3       30.47R
JUNEAU         CLEAR     11   5  75 NW5       30.49R WCI   3
$$

LSZ147-162-301400-
LAKE SUPERIOR

STATION/POSITION TIME  TEMP    WIND        PRES    WAVE
                       AIR SEA DIR/SP/G            HT/PER
                 (UTC) (F)     (DEG/KT/KT) (MB)    (FT/S)
DEVILS ISLAND    1300   13     270/  8/ 13 1034.0R
PORT WING        1200   10     200/  5/  7 1032.8
SAXON HARBOR     1200   13        CALM     1032.5S
$$

LMZ867-665-643>646-301400-
LAKE MICHIGAN

STATION/POSITION TIME  TEMP    WIND        PRES    WAVE
                       AIR SEA DIR/SP/G            HT/PER
                 (UTC) (F)     (DEG/KT/KT) (MB)    (FT/S)
NORTHPORT PIER   1210   14     320/ 17/ 23 1031.5R
SISTER BAY       1243   12     360/ 12/ 14   N/A
KEWAUNEE LAKESHO 1200   13     360/  6/ 11 1031.0R
SHEBOYGAN LAKESH 1300   18     350/ 13/ 16 1033.8R
PORT WASHINGTON  1200   19     360/  2/  5 1032.8
MILWAUKEE LAKESH 1200   20     320/  7/ 10   N/A
KENOSHA   LAKESH 1300   19     310/  9/ 12 1032.2R
$$

TC  - TEMPERATURE IN CELSIUS
VSB - VISIBILITY IN STATUTE MILES
WCI - WIND CHILL INDEX
HX  - HEAT INDEX




USA.gov is the U.S. government's official web portal to all federal, state and local government web resources and services.